Time,TemperatureF,DewpointF,PressureIn,WindDirection,WindDirectionDegrees,WindSpeedMPH,WindSpeedGustMPH,Humidity,HourlyPrecipIn,Conditions,Clouds,dailyrainin,SoftwareType,DateUTC
2013-04-22 00:00:00,43.0,-99.9,30.66,North,9,12.0,14.0,-999,-99.99,,,-99.99,,2013-04-22 04:00:00,
2013-04-22 02:00:00,41.0,-99.9,30.68,NNE,20,13.0,15.0,-999,-99.99,,,-99.99,,2013-04-22 06:00:00,
2013-04-22 02:42:00,41.0,-99.9,30.68,NNE,20,13.0,15.0,-999,-99.99,,,-99.99,,2013-04-22 06:42:00,
2013-04-22 02:52:00,41.0,-99.9,30.68,NNE,20,13.0,15.0,-999,-99.99,,,-99.99,,2013-04-22 06:52:00,
2013-04-22 03:00:00,41.0,-99.9,30.69,NNE,30,12.0,13.0,-999,-99.99,,,-99.99,,2013-04-22 07:00:00,
2013-04-22 03:42:00,41.0,-99.9,30.69,NNE,30,12.0,13.0,-999,-99.99,,,-99.99,,2013-04-22 07:42:00,
2013-04-22 03:52:00,41.0,-99.9,30.69,NNE,30,12.0,13.0,-999,-99.99,,,-99.99,,2013-04-22 07:52:00,
2013-04-22 04:00:00,40.0,-99.9,30.70,NE,40,12.0,14.0,-999,-99.99,,,-99.99,,2013-04-22 08:00:00,
2013-04-22 04:42:00,40.0,-99.9,30.70,NE,40,12.0,14.0,-999,-99.99,,,-99.99,,2013-04-22 08:42:00,
2013-04-22 04:53:00,40.0,-99.9,30.70,NE,40,12.0,14.0,-999,-99.99,,,-99.99,,2013-04-22 08:53:00,
2013-04-22 05:00:00,39.0,-99.9,30.71,NE,41,11.0,13.0,-999,-99.99,,,-99.99,,2013-04-22 09:00:00,
2013-04-22 05:42:00,39.0,-99.9,30.71,NE,41,11.0,13.0,-999,-99.99,,,-99.99,,2013-04-22 09:42:00,
2013-04-22 05:53:00,39.0,-99.9,30.71,NE,41,11.0,13.0,-999,-99.99,,,-99.99,,2013-04-22 09:53:00,
2013-04-22 06:10:00,39.0,-99.9,30.74,NNE,33,10.0,11.0,-999,-99.99,,,-99.99,,2013-04-22 10:10:00,
2013-04-22 07:00:00,38.0,-99.9,30.76,NE,35,10.0,12.0,-999,-99.99,,,-99.99,,2013-04-22 11:00:00,
2013-04-22 07:02:00,39.0,-99.9,30.74,NNE,33,10.0,11.0,-999,-99.99,,,-99.99,,2013-04-22 11:02:00,
2013-04-22 07:43:00,38.0,-99.9,30.76,NE,35,10.0,12.0,-999,-99.99,,,-99.99,,2013-04-22 11:43:00,
2013-04-22 07:53:00,38.0,-99.9,30.76,NE,35,10.0,12.0,-999,-99.99,,,-99.99,,2013-04-22 11:53:00,
2013-04-22 08:00:00,40.0,-99.9,30.78,NE,54,8.0,11.0,-999,-99.99,,,-99.99,,2013-04-22 12:00:00,
2013-04-22 08:42:00,40.0,-99.9,30.78,NE,54,8.0,11.0,-999,-99.99,,,-99.99,,2013-04-22 12:42:00,
2013-04-22 08:52:00,40.0,-99.9,30.78,NE,54,8.0,11.0,-999,-99.99,,,-99.99,,2013-04-22 12:52:00,
2013-04-22 09:00:00,40.0,-99.9,30.77,NNE,30,9.0,11.0,-999,-99.99,,,-99.99,,2013-04-22 13:00:00,
2013-04-22 09:42:00,40.0,-99.9,30.77,NNE,30,9.0,11.0,-999,-99.99,,,-99.99,,2013-04-22 13:42:00,
2013-04-22 09:53:00,40.0,-99.9,30.77,NNE,30,9.0,11.0,-999,-99.99,,,-99.99,,2013-04-22 13:53:00,
2013-04-22 13:00:00,42.0,-99.9,30.76,ESE,112,10.0,13.0,-999,-99.99,,,-99.99,,2013-04-22 17:00:00,
2013-04-22 13:43:00,42.0,-99.9,30.76,ESE,112,10.0,13.0,-999,-99.99,,,-99.99,,2013-04-22 17:43:00,
2013-04-22 13:52:00,42.0,-99.9,30.76,ESE,112,10.0,13.0,-999,-99.99,,,-99.99,,2013-04-22 17:52:00,
2013-04-22 14:00:00,42.0,-99.9,30.74,ESE,118,17.0,20.0,-999,-99.99,,,-99.99,,2013-04-22 18:00:00,
2013-04-22 14:42:00,42.0,-99.9,30.74,ESE,118,17.0,20.0,-999,-99.99,,,-99.99,,2013-04-22 18:42:00,
2013-04-22 14:52:00,42.0,-99.9,30.74,ESE,118,17.0,20.0,-999,-99.99,,,-99.99,,2013-04-22 18:52:00,
2013-04-22 15:00:00,42.0,-99.9,30.74,ESE,118,13.0,16.0,-999,-99.99,,,-99.99,,2013-04-22 19:00:00,
2013-04-22 15:42:00,42.0,-99.9,30.74,ESE,118,13.0,16.0,-999,-99.99,,,-99.99,,2013-04-22 19:42:00,
2013-04-22 15:53:00,42.0,-99.9,30.74,ESE,118,13.0,16.0,-999,-99.99,,,-99.99,,2013-04-22 19:53:00,
2013-04-22 16:00:00,42.0,-99.9,30.71,ESE,120,12.0,14.0,-999,-99.99,,,-99.99,,2013-04-22 20:00:00,
2013-04-22 16:42:00,42.0,-99.9,30.71,ESE,120,12.0,14.0,-999,-99.99,,,-99.99,,2013-04-22 20:42:00,
2013-04-22 16:52:00,42.0,-99.9,30.71,ESE,120,12.0,14.0,-999,-99.99,,,-99.99,,2013-04-22 20:52:00,
2013-04-22 17:00:00,41.0,-99.9,30.71,SE,132,11.0,13.0,-999,-99.99,,,-99.99,,2013-04-22 21:00:00,
2013-04-22 17:43:00,41.0,-99.9,30.71,SE,132,11.0,13.0,-999,-99.99,,,-99.99,,2013-04-22 21:43:00,
2013-04-22 17:53:00,41.0,-99.9,30.71,SE,132,11.0,13.0,-999,-99.99,,,-99.99,,2013-04-22 21:53:00,
2013-04-22 18:00:00,41.0,-99.9,30.70,SE,142,10.0,12.0,-999,-99.99,,,-99.99,,2013-04-22 22:00:00,
2013-04-22 18:42:00,41.0,-99.9,30.70,SE,142,10.0,12.0,-999,-99.99,,,-99.99,,2013-04-22 22:42:00,
2013-04-22 18:52:00,41.0,-99.9,30.70,SE,142,10.0,12.0,-999,-99.99,,,-99.99,,2013-04-22 22:52:00,
2013-04-22 19:00:00,41.0,-99.9,30.69,SE,135,11.0,13.0,-999,-99.99,,,-99.99,,2013-04-22 23:00:00,
2013-04-22 19:43:00,41.0,-99.9,30.69,SE,135,11.0,13.0,-999,-99.99,,,-99.99,,2013-04-22 23:43:00,
2013-04-22 19:52:00,41.0,-99.9,30.69,SE,135,11.0,13.0,-999,-99.99,,,-99.99,,2013-04-22 23:52:00,
2013-04-22 20:00:00,41.0,-99.9,30.69,SE,134,10.0,12.0,-999,-99.99,,,-99.99,,2013-04-23 00:00:00,
2013-04-22 20:42:00,41.0,-99.9,30.69,SE,134,10.0,12.0,-999,-99.99,,,-99.99,,2013-04-23 00:42:00,
2013-04-22 20:52:00,41.0,-99.9,30.69,SE,134,10.0,12.0,-999,-99.99,,,-99.99,,2013-04-23 00:52:00,
2013-04-22 21:00:00,41.0,-99.9,30.69,SE,130,12.0,14.0,-999,-99.99,,,-99.99,,2013-04-23 01:00:00,
2013-04-22 21:42:00,41.0,-99.9,30.69,SE,130,12.0,14.0,-999,-99.99,,,-99.99,,2013-04-23 01:42:00,
2013-04-22 21:52:00,41.0,-99.9,30.69,SE,130,12.0,14.0,-999,-99.99,,,-99.99,,2013-04-23 01:52:00,
2013-04-22 22:10:00,40.0,-99.9,30.68,ESE,110,11.0,14.0,-999,-99.99,,,-99.99,,2013-04-23 02:10:00,
2013-04-22 23:00:00,41.0,-99.9,30.66,ESE,105,14.0,17.0,-999,-99.99,,,-99.99,,2013-04-23 03:00:00,
2013-04-22 23:02:00,40.0,-99.9,30.68,ESE,110,11.0,14.0,-999,-99.99,,,-99.99,,2013-04-23 03:02:00,
2013-04-22 23:43:00,41.0,-99.9,30.66,ESE,105,14.0,17.0,-999,-99.99,,,-99.99,,2013-04-23 03:43:00,
2013-04-22 23:53:00,41.0,-99.9,30.66,ESE,105,14.0,17.0,-999,-99.99,,,-99.99,,2013-04-23 03:53:00,